Location: Cheching
(60.0667°N, 164.2167°W)
Time: 13:43:20
(UTC+00:00)

STRAND 1 - Pass Details

Date: 20 January 2021
Orbit: 768 x 780 km, 98.4° (Epoch: 04 March)

Event Time Altitude Azimuth Distance (km) Brightness Sun altitude
Rises 17:59:45 0° 190° (S) 3,236 ? -11.0°
Reaches altitude 10° 18:02:14 10° 199° (SSW) 2,315 ? -10.7°
Maximum altitude 18:06:54 35° 265° (W) 1,228 ? -10.2°
Drops below altitude 10° 18:11:38 10° 332° (NNW) 2,336 ? -9.6°
Enters shadow 18:14:01 - 340° (NNW) 3,218 ? -9.4°
